Location: Borger
(52.9222°N, 6.7926°E)
Time: 08:40:43
(UTC+00:00)

Daily predictions for brighter satellites

Satellite Brightness Start Highest point End
(mag) Time Altitude Azimuth Time Altitude Azimuth Time Altitude Azimuth
NOSS 3-3 (A) 3.8 19:59:40 10° SSW 20:04:49 61° SE 20:11:02 10° NE
Cosmos 1544 Rocket 4.2 20:01:19 10° SSE 20:05:19 37° E 20:09:18 10° NNE
Cosmos 44 Rocket 4.3 20:00:43 10° WSW 20:05:46 56° NW 20:10:55 10° NE
Cosmos 1437 Rocket 3.5 20:04:39 10° SSE 20:07:44 28° E 20:10:53 10° NNE
Cosmos 2360 Rocket 2.7 20:02:26 10° NNW 20:07:59 51° NE 20:13:29 10° SE
Helios 1A Rocket 2.4 20:05:23 10° NNE 20:08:33 76° WNW 20:11:41 10° SSW
Cosmos 1452 Rocket 4.3 20:06:22 10° SW 20:11:31 57° WNW 20:16:42 10° NNE
EP 1 4.2 20:10:20 10° NW 20:12:57 76° NE 20:15:38 10° SE
CZ-4B R/B 3.8 20:08:34 10° S 20:14:08 59° WSW 20:19:41 10° NNW
Cosmos 2233 Rocket 4.0 20:09:54 10° S 20:16:06 85° E 20:22:17 10° NNE
Cosmos 1486 Rocket 4.3 20:13:22 10° NNW 20:18:35 59° ENE 20:23:48 10° SE
Cosmos 1302 Rocket 4.3 20:13:40 10° SSW 20:18:50 74° WNW 20:24:04 10° NNE
Okean-O 2.7 20:16:05 10° SSE 20:20:27 83° WSW 20:24:53 10° NNW
Cosmos 1758 Rocket 3.6 20:16:10 10° N 20:20:36 82° ENE 20:25:02 10° SSE
Cosmos 2219 Rocket 3.0 20:15:15 10° NNW 20:20:39 43° NE 20:26:03 10° ESE
Cosmos 909 Rocket 4.0 20:15:51 10° SSW 20:22:06 71° SE 20:28:41 10° NE
CZ-2C R/B 3.6 20:21:12 10° ESE 20:23:26 22° ENE 20:25:39 10° NNE
DNEPR-1 R/B 4.4 20:23:11 10° NW 20:28:32 84° SW 20:34:57 11° SE
Nadezhda 4 Rocket 4.4 20:23:49 10° N 20:29:43 47° ENE 20:35:27 11° SE
Meteor 1-25 Rocket 4.3 20:24:18 10° N 20:29:59 69° ENE 20:35:32 10° SSE
USA 245 4.3 20:26:13 10° SSE 20:32:04 76° ENE 20:37:29 10° NNW
IRS-1C Rocket 4.3 20:27:14 10° SE 20:32:25 59° ENE 20:37:37 10° N
Cosmos 1825 Rocket 4.4 20:29:07 10° N 20:33:10 36° ENE 20:36:52 12° SE
Cosmos 1805 3.3 20:30:42 10° N 20:33:52 43° ENE 20:36:34 13° SE
NOSS 3-3 (C) 3.7 20:32:00 10° SW 20:37:20 79° SE 20:43:50 10° NE
Cosmos 220 Rocket 4.2 20:33:42 10° S 20:37:32 42° ESE 20:41:26 10° NE
Cosmos 2322 Rocket 2.3 20:34:54 10° NNW 20:40:36 82° ENE 20:45:49 12° SSE
RESURS DK-1 4.4 20:38:21 10° N 20:41:17 19° NE 20:44:13 10° E
Cosmos 1602 Rocket 3.5 20:40:14 10° N 20:44:34 83° ENE 20:48:44 11° SSE
USA 306 1.7 20:42:46 10° W 20:45:42 63° N 20:47:33 10° ENE
Cosmos 2082 Rocket 3.0 20:41:32 10° SW 20:47:10 58° NW 20:52:50 10° NNE
NOSS 3-4 (A) 3.9 20:41:33 10° NW 20:48:06 76° SW 20:55:06 13° SE
NOSS 3-4 (C) 3.9 20:42:10 10° NW 20:48:45 77° SW 20:55:45 13° SE
YAOGAN 11 4.3 20:46:53 10° NNE 20:51:20 80° WNW 20:55:48 10° SSW
Cosmos 1707 4.3 20:52:04 10° E 20:52:40 11° E 20:53:17 10° ENE
CZ-4B R/B 2.5 20:49:58 13° S 20:53:01 79° WSW 20:56:32 10° NNW
Cosmos 2151 3.4 20:50:46 10° NNW 20:54:48 56° W 20:58:48 10° S
Cosmos 1076 Rocket 4.0 20:53:09 10° N 20:57:15 45° ENE 21:00:20 16° SE
Cosmos 44 3.9 20:52:36 10° NW 20:57:59 61° NE 21:02:45 13° ESE
Cosmos 2098 Rocket 3.1 20:53:26 10° S 20:58:01 57° E 21:01:58 10° NNE
Cosmos 2237 Rocket 4.2 20:54:01 10° NNW 20:58:20 22° NNE 21:02:38 10° E
ATLAS 2AS CENTAUR R/B 4.4 20:52:56 10° WNW 20:59:11 36° N 21:05:23 10° NE
CZ-4C R/B 3.7 20:55:56 10° W 21:00:26 39° NNW 21:06:16 10° NE
Ariane Rocket 3.0 20:59:02 13° SSE 21:03:38 84° WSW 21:08:44 10° NNW
Cosmos 2278 4.3 21:02:08 10° NW 21:07:40 52° WSW 21:12:37 13° S
SL-16 R/B 3.2 21:06:21 10° NW 21:11:36 39° WSW 21:16:43 10° S
Meteor 1-5 Rocket 4.4 21:06:43 10° NNW 21:12:29 82° W 21:17:38 14° S
COSMOS 2428 3.7 21:07:10 10° NNW 21:12:32 39° NE 21:17:37 11° ESE
SPOT 3 Rocket 4.0 21:09:24 11° S 21:14:21 56° W 21:19:25 10° NNW
Cosmos 1763 Rocket 3.9 21:10:53 13° S 21:15:20 45° ESE 21:20:20 10° NE
USA 186 4.1 21:14:11 10° SW 21:15:56 16° W 21:17:43 10° NW
USA 290 2.2 21:18:07 18° S 21:20:16 56° ESE 21:23:21 10° NNE
Cosmos 1606 Rocket 3.5 21:17:15 14° S 21:20:53 73° E 21:25:12 10° NNE
Cosmos 990 Rocket 4.0 21:17:08 10° NNW 21:22:20 88° ENE 21:26:04 19° SSE
Cosmos 1933 4.2 21:21:08 10° SSW 21:24:47 45° WNW 21:28:29 10° N
Cosmos 1464 Rocket 4.0 21:18:47 10° S 21:24:55 84° E 21:31:10 10° NNE
ISS -3.8 21:22:46 10° W 21:26:05 64° S 21:28:15 20° ESE
Helios 1B rocket 3.4 21:24:22 17° ESE 21:26:17 27° ENE 21:29:19 10° N
Cosmos 1461 3.2 21:23:17 10° WSW 21:26:57 57° NW 21:30:34 10° NE
CZ-4B R/B 4.0 21:23:15 13° S 21:27:21 50° W 21:32:07 10° NNW
BREEZE-M DEB (TANK) 1.6 21:25:57 10° WSW 21:28:12 35° S 21:28:12 35° S
Okean 1 2.9 21:25:54 20° S 21:28:17 72° E 21:31:53 10° NNE
Cosmos 1726 Rocket 3.4 21:25:49 19° S 21:28:34 63° E 21:32:35 10° NNE
COSMOS 2406 4.0 21:25:40 10° SW 21:31:18 56° NW 21:36:59 10° NNE
Okean O Rocket 3.9 21:31:56 10° SW 21:34:53 18° W 21:37:52 10° NW
Cosmos 1536 3.2 21:31:36 10° N 21:35:11 45° ENE 21:36:59 25° SE
GRACE-FO 1 4.5 21:34:58 22° S 21:37:06 81° W 21:40:38 10° N
GRACE-FO 2 4.5 21:35:26 22° S 21:37:35 80° W 21:41:06 10° N
Cosmos-2242 3.3 21:37:47 24° SSE 21:39:55 48° E 21:43:54 10° NNE
Cosmos 1092 Rocket 4.0 21:34:49 10° N 21:41:01 72° ENE 21:45:21 21° SSE
Cosmos 2333 Rocket 3.7 21:37:07 10° NW 21:41:52 28° WSW 21:46:30 10° SSW
KORONAS-FOTON 4.4 21:43:53 27° SE 21:44:50 32° E 21:47:54 10° NNE
Cosmos 2297 Rocket 4.0 21:46:14 12° ESE 21:47:45 14° E 21:50:28 10° ENE
Cosmos 1833 4.1 21:44:24 10° SSW 21:50:02 73° ESE 21:55:40 10° NE
Cosmos 2360 Rocket 3.2 21:46:39 10° NW 21:51:50 37° WSW 21:55:44 16° SSW
CZ-2C R/B 4.0 21:52:45 15° SW 21:54:07 21° W 21:56:21 10° NW
Cosmos 1766 2.7 21:52:19 10° NNW 21:55:32 82° W 21:56:45 35° S
Cosmos 2322 3.8 21:50:49 10° NNW 21:56:33 74° NE 22:00:18 22° SE
Cosmos 1842 3.7 21:56:49 29° ESE 21:57:21 31° E 22:00:12 10° NNE
Cosmos 1975 3.7 21:54:21 10° N 21:57:43 33° ENE 21:59:14 23° ESE
Cosmos 372 Rocket 3.9 21:57:21 10° NNW 22:02:30 88° ENE 22:05:24 26° SSE
Cosmos 2034 Rocket 4.1 21:58:36 14° SSW 22:04:08 78° W 22:10:30 10° N
Cosmos 2219 Rocket 2.8 21:59:17 10° NW 22:04:40 46° WSW 22:08:05 21° S
Cosmos 2221 3.6 22:03:18 23° ESE 22:04:43 29° E 22:08:21 10° NNE
Cosmos 1271 Rocket 3.2 22:06:21 31° ESE 22:07:03 35° E 22:10:10 10° NNE
Cosmos 540 Rocket 3.5 22:07:44 12° SSW 22:12:29 79° WNW 22:17:40 10° NNE
USA 306 3.5 22:10:42 10° WNW 22:11:19 15° WNW 22:11:19 15° WNW
Helios 1A 2.7 22:12:17 10° NNE 22:16:14 85° ESE 22:18:07 30° SSW
Cosmos 1953 Rocket 4.5 22:13:37 10° NNW 22:17:41 40° W 22:20:10 20° SSW
RESURS DK-1 2.2 22:15:10 10° NW 22:19:10 84° WSW 22:20:45 35° SSE
Cosmos 2279 Rocket 4.1 22:16:39 25° SSE 22:20:23 63° E 22:26:35 10° NNE
Aureole 1 Rocket 4.2 22:14:49 10° NNW 22:20:28 59° WSW 22:24:34 24° S
Cosmos 2322 Rocket 4.0 22:19:50 10° NW 22:23:59 21° W 22:27:37 12° SW
Cosmos 1707 2.8 22:23:33 31° SW 22:24:27 44° WNW 22:27:12 10° N
Cosmos 1634 Rocket 4.0 22:22:33 22° S 22:26:45 89° W 22:33:01 10° N
Cosmos 1937 Rocket 3.4 22:22:14 10° NNW 22:27:25 80° ENE 22:30:09 28° SSE
TSX-5 3.9 22:26:21 10° NW 22:29:20 42° WSW 22:29:55 38° SSW
SL-16 R/B 4.1 22:26:52 10° NNW 22:31:40 27° NE 22:36:26 10° E
Geosat 3.9 22:27:02 10° NNE 22:32:04 84° ESE 22:35:39 20° SSW
CZ-2C R/B 3.9 22:28:01 10° NNE 22:32:25 56° E 22:34:15 33° SSE
Cosmos 2058 Rocket 3.4 22:30:59 23° SSW 22:33:31 61° WNW 22:37:50 10° N
Cosmos 468 Rocket 4.0 22:30:13 20° SSW 22:33:54 89° WNW 22:39:11 10° NNE
GP-B 4.1 22:30:28 10° NNE 22:34:29 34° E 22:36:11 25° SE
Meteor 2-9 Rocket 4.1 22:33:06 10° NNW 22:38:31 86° W 22:41:25 29° S
Cosmos 44 4.4 22:34:05 10° NW 22:38:56 35° WSW 22:41:01 25° SSW
CZ-2C R/B 3.6 22:39:09 17° ESE 22:42:37 37° ENE 22:47:23 10° N
Lacrosse 4 Rocket 3.2 22:42:44 16° ESE 22:42:44 16° ESE 22:45:07 10° ENE
Cosmos 2237 Rocket 2.4 22:37:47 10° NNW 22:43:29 67° NE 22:47:08 22° SE
Cosmos 2266 Rocket 4.0 22:40:59 10° N 22:47:02 73° ENE 22:50:26 28° SSE
USA 234 4.0 22:41:49 10° ENE 22:47:33 31° SE 22:49:36 26° SSE
Cosmos 1980 3.8 22:42:04 10° NNW 22:47:45 76° ENE 22:51:12 25° SE
SeaSat 1 4.0 22:43:45 10° ESE 22:48:02 31° NE 22:52:19 10° NNW
Cosmos 1470 2.8 22:45:23 10° NNW 22:48:35 49° W 22:49:19 40° SW
CZ-4C R/B 4.3 22:45:12 10° WNW 22:50:08 31° N 22:56:21 10° ENE
ATLAS 2AS CENTAUR R/B 4.1 22:45:25 10° NW 22:51:43 38° NNE 22:58:00 10° E
Intercosmos 24 4.4 22:48:28 10° N 22:52:16 45° ENE 22:53:30 32° ESE
ARIANE 5 R/B 2.7 22:52:41 35° S 22:54:28 70° WSW 22:58:58 10° NNW
ALOS 2 2.6 22:54:46 36° S 22:56:31 80° WSW 23:00:57 10° NNW
COSMOS 2428 3.1 22:51:26 10° NW 22:56:58 52° WSW 22:59:34 29° S
Cosmos 2227 Rocket 3.8 22:55:49 17° SE 22:57:40 20° E 23:01:41 10° NE
Helios 1B rocket 3.4 22:58:18 25° SW 22:59:13 28° W 23:02:19 10° NW
Cosmos 1898 Rocket 4.1 22:57:27 10° NW 23:02:23 44° WSW 23:04:34 29° SSW
ISS -1.9 22:59:41 10° W 23:01:10 20° WSW 23:01:10 20° WSW
BlueWalker 3 4.2 23:05:21 12° E 23:05:21 12° E 23:05:43 10° E
Cosmos 2263 Rocket 4.1 23:03:56 13° ESE 23:05:52 15° E 23:08:53 10° ENE
CZ-2C R/B 3.8 23:01:07 10° NNE 23:06:42 47° E 23:09:26 28° SSE
Meteor 1-11 Rocket 3.7 23:01:43 10° NNW 23:07:25 78° W 23:10:10 31° S
Cosmos 1766 Rocket 3.9 23:04:08 10° N 23:08:22 55° ENE 23:10:08 32° SE
SAR-Lupe-2 3.4 23:10:57 54° SSW 23:11:31 67° WSW 23:14:51 10° NNW
Meteor 1-10 Rocket 4.3 23:11:29 29° S 23:14:40 86° ESE 23:20:39 10° NNE
Cosmos 1238 Rocket 3.5 23:14:04 34° SE 23:15:20 45° E 23:19:34 10° NNE
PSLV R/B 3.5 23:11:17 10° NNE 23:15:35 82° ESE 23:17:16 38° S
Cosmos 1655 Rocket 4.2 23:14:17 10° N 23:20:32 67° ENE 23:24:14 26° SSE
Cosmos 192 4.5 23:16:42 10° NNW 23:21:39 70° ENE 23:24:20 27° SE
Alouette 2 Rocket 3.6 23:22:32 10° NNW 23:26:17 71° ENE 23:28:18 32° SSE
NOSS 0 Rocket 4.5 23:22:22 10° NW 23:28:09 43° WSW 23:30:48 28° SSW
Meteor 1-27 Rocket 3.8 23:25:49 31° S 23:28:45 75° E 23:34:28 10° NNE
Meteor 2-10 Rocket 4.0 23:23:22 10° N 23:28:52 62° ENE 23:32:13 25° SSE
Cosmos 841 Rocket 3.8 23:27:23 22° SW 23:30:41 64° WNW 23:35:56 10° NNE
Cosmos 2297 Rocket 2.2 23:27:59 31° SSW 23:30:45 70° ESE 23:36:23 10° NE
Cosmos 1975 4.2 23:29:33 10° NW 23:32:32 24° W 23:33:29 21° WSW
CZ-4C R/B 4.4 23:38:10 10° NE 23:41:07 26° E 23:41:47 25° ESE
Cosmos 2221 3.6 23:39:35 22° WSW 23:41:39 34° WNW 23:45:31 10° N
Cosmos 158 Rocket 4.4 23:39:40 31° SSE 23:41:55 52° ESE 23:47:05 10° NNE
Cosmos 1812 Rocket 4.3 23:39:58 27° SW 23:42:01 46° WNW 23:46:19 10° N
ACS3 Solar Sail 2.7 23:37:17 10° NNE 23:42:46 36° E 23:46:10 21° SE
MetOp-A 4.0 23:42:38 34° SSW 23:44:33 57° WSW 23:49:07 10° NNW
Landsat 5 3.9 23:43:17 10° NNE 23:47:15 46° E 23:48:28 34° SSE
